Regional Weather Roundup
Issued by NWS

Home | Current Version | Previous Version | Text Only | Print | Product List | Glossary Off
Versions: 1 2 3 4 5 6 7 8 9 10 11 12 13 14 15 16 17 18 19 20 21 22 23 24 25 26 27

000
ASUS45 KTFX 301110
RWRMT
MONTANA REGIONAL WEATHER ROUNDUP
NATIONAL WEATHER SERVICE GREAT FALLS MT
500 AM MDT SUN APR 30 2017

NOTE: "FAIR" INDICATES FEW OR NO CLOUDS BELOW 12000 FEET WITH NO
SIGNIFICANT WEATHER AND/OR OBSTRUCTIONS TO VISIBILITY.

MTZ001>007-043-301200-
WEST OF THE DIVIDE

CITY           SKY/WX    TMP DP  RH WIND       PRES   REMARKS
KALISPELL      CLOUDY    46  33  60 SW15      30.00S
MISSOULA       CLOUDY    46  36  68 CALM      30.04S
BUTTE          CLOUDY    38  27  64 CALM      30.06S
MULLAN PASS    SNOW      30  30 100 SW9       30.00F VSB 1/2 WCI  22
ANACONDA         N/A     41  28  60 CALM      30.04F
DEER LODGE       N/A     43  28  56 NE5       30.05F
EUREKA           N/A     46  32  57 SE7       29.98F
HAMILTON         N/A     50  27  40 S7        30.05S
LIBBY            N/A     45  37  76 SE7       30.00S
PLAINS           N/A     47  33  58 NW1       30.03F
$$

MTZ008-052>055-301200-
SOUTHWEST MONTANA

CITY           SKY/WX    TMP DP  RH WIND       PRES   REMARKS
BOZEMAN        CLOUDY    35  30  82 VRB3      30.04S
DILLON         CLOUDY    41  26  55 SW17      30.06S
W YELLOWSTONE  CLOUDY    32  23  69 SW8       30.12F WCI  25
ENNIS          CLOUDY    39  27  60 S7G16     30.11S
THREE FORKS      N/A     36  36 100 CALM      30.03R
TWIN BRIDGES     N/A     43  23  45 E5        30.04
$$

MTZ009-010-012-014-046-048-049-054-301200-
EAST SLOPES AND CENTRAL MONTANA

CITY           SKY/WX    TMP DP  RH WIND       PRES   REMARKS
CUT BANK       CLOUDY    42  30  62 W25G35    29.89S
GREAT FALLS    CLOUDY    46  28  49 SW16      29.92F
MALMSTROM AFB  CLOUDY    45  31  57 SW12      29.92F
HELENA         CLOUDY    49  28  44 SW3       30.00S
AUGUSTA        MOCLDY    43  28  55 W7        29.92S
BOWMANS CRNR   CLOUDY    43  28  55 SW13      29.92F
CHOTEAU          N/A     45  28  53 NE5       29.93S
FAIRFIELD      CLOUDY    46  28  49 SW15      29.91S
POWER          MOCLDY    42  31  63 SW8       29.91S
RAYNESFORD     MOCLDY    47  26  44 W17       29.94S
ULM            MOCLDY    47  28  46 SW17      29.94S
$$

MTZ011-013-016-021-045-047-050-051-301200-
NORTH CENTRAL MONTANA

CITY           SKY/WX    TMP DP  RH WIND       PRES   REMARKS
HAVRE          CLOUDY    38  34  85 W5        29.90S
LEWISTOWN      CLOUDY    39  29  67 SW10      29.95S
N BAR RANCH      N/A     41  28  60 SW9       29.99F
CHINOOK          N/A     39  36  87 SE5       29.91R
DENTON         MOCLDY    39  29  69 MISG      29.90F
FORT BENTON      N/A    N/A N/A N/A MISG      29.92F
GEYSER         CLOUDY    41  29  62 SW9       29.93F
GRASS RANGE    MOCLDY    38  31  78 W12       29.92F WCI  30
JUDITH GAP     MOCLDY    33  28  81 SW13      29.98F WCI  24
STANFORD       MOCLDY    44  27  52 W12       29.94F
WINIFRED         N/A     44  28  54 SW13      29.92F
$$

MTZ017>020-022>027-061-062-301200-
NORTHEAST MONTANA

CITY           SKY/WX    TMP DP  RH WIND       PRES   REMARKS
GLASGOW        PTCLDY    36  30  79 E12       29.96F WCI  28
JORDAN           N/A     37  25  61 CALM      29.98S
SIDNEY         CLEAR     30  26  85 S6        30.04S WCI  24
WOLF POINT     CLEAR     32  26  78 NE6       30.00S WCI  26
PLENTYWOOD       N/A     39  30  70 E3        30.00S
POPLAR           N/A     41  27  56 SW3       30.01S
SCOBEY           N/A     42  26  53 S8        29.96R
$$

MTZ028>42-056>058-301200-
SOUTHCENTRAL AND SOUTHEAST MONTANA

CITY           SKY/WX    TMP DP  RH WIND       PRES   REMARKS
BILLINGS       PTCLDY    41  27  57 SW13      30.00F
LIVINGSTON     CLOUDY    33  27  78 NW10      30.02S WCI  25
MILES CITY     CLEAR     35  24  64 S10       30.02F WCI  27
BIG TIMBER     CLEAR     41  28  60 SW8       30.02F
EKALAKA          N/A     34  14  43 CALM      30.04F
LAUREL           N/A     42  25  51 S15       29.99F
ROUNDUP          N/A     35  25  67 S5        29.91F
$$

REGIONAL REPORTS...DAKOTAS

CITY           SKY/WX    TMP DP  RH WIND       PRES   REMARKS
WILLISTON      CLEAR     38  25  59 S3        30.03S
MINOT          CLEAR     45  21  38 SW8       30.06S
DICKINSON      CLEAR     28  18  66 S10       30.06S WCI  19
BEACH            N/A     28  25  86 S8        30.09R WCI  20
TIOGA            N/A     36  28  75 S10       30.04S WCI  28
WATFORD CITY     N/A     34  25  69 CALM      30.05R
BISMARCK       CLEAR     33  26  75 NE3       30.13F
GRAND FORKS    CLOUDY    39  31  72 S8        30.18R
FARGO          PTCLDY    37  27  67 NE3       30.16S
BUFFALO SD       N/A     37  22  54 W3        30.01F
RAPID CITY     CLEAR     34  21  59 W15       30.07F WCI  24
$$

REGIONAL REPORTS...WYOMING/IDAHO/WASHINGTON

CITY           SKY/WX    TMP DP  RH WIND       PRES   REMARKS
GILLETTE       CLEAR     27  19  72 S8        30.07S WCI  19
SHERIDAN       CLEAR     25  20  81 CALM      30.05S
BUFFALO WY     CLEAR     33  17  51 W8        30.05F WCI  26
CODY           CLEAR     26  24  92 NE3       30.07S
YELLOWSTONE LA   N/A     18  16  92 CALM      30.16R
IDAHO FALLS    CLOUDY    36  29  75 SW9       30.13F WCI  29
SALMON         CLOUDY   N/A N/A N/A MISG        N/A
BOISE          MOCLDY    48  30  49 SE8       30.10S
SPOKANE        LGT RAIN  48  36  63 SW17      30.00S
$$

REGIONAL REPORTS...ALBERTA

CITY           SKY/WX    TMP DP  RH WIND       PRES   REMARKS
EDMONTON       CLOUDY    43  36  75 CALM      29.78F
CALGARY        MOCLDY    45  27  49 SW6       29.76F
LETHBRIDGE     CLOUDY    45  32  61 SW14      29.84S
MEDICINE HAT   CLOUDY    45  34  65 SW9       29.83F
CARDSTON         N/A     43  28  56 W6          N/A
MILK RIVER       N/A     45  34  65 SW10        N/A
$$

REGIONAL REPORTS...SASKATCHEWAN

CITY           SKY/WX    TMP DP  RH WIND       PRES   REMARKS
SWIFT CURRENT  MOCLDY    37  34  87 S14       29.86F WCI  29
REGINA         PTCLDY    36  34  93 SE6       29.95F WCI  31
SASKATOON      PTCLDY    30  28  93 NE7       29.92F WCI  23
CYPRESS HILLS    N/A     36  28  75 SW5         N/A
VAL MARIE        N/A     34  32  93 NE2         N/A
$$




USA.gov is the U.S. government's official web portal to all federal, state and local government web resources and services.